Weather History for Crookston, MN

Change the Weather History Date:

Friday, April 26, 2013

  Actual Average Record
Temperature  
Mean Temperature 48 °F -  
Max Temperature 62 °F 58 °F 73 °F (2007)
Min Temperature 33 °F 33 °F 19 °F (2002)
Degree Days  
Heating Degree Days 18    
Moisture  
Dew Point 40 °F    
Average Humidity 75    
Maximum Humidity 100    
Minimum Humidity 48    
Precipitation  
Precipitation 0.00 in - - ()
Sea Level Pressure  
Sea Level Pressure 29.99 in    
Wind  
Wind Speed 9 mph (SSW)    
Max Wind Speed 15 mph    
Max Gust Speed -    
Visibility 10 miles    
Events      
Averages and records for this station are not official NWS values.
T = Trace of Precipitation, MM = Missing Value Source: NWS Daily Summary

Daily Weather History Graph

Daily Weather History Graph

Search for Another Location

Airport:

Trip Planner

Search our weather history database for the weather conditions in past years. The results will help you decide how hot, cold, wet, or windy it might be!

Date:

Astronomy

Apr. 26, 2013 Rise Set
Actual Time 6:16 AM CDT 8:32 PM CDT
Civil Twilight 5:42 AM CDT 9:06 PM CDT
Nautical Twilight 5:00 AM CDT 9:49 PM CDT
Astronomical Twilight 4:12 AM CDT 10:37 PM CDT
Moon 10:02 PM CDT (4/26) 6:41 AM CDT (4/26)
Length of Visible Light 15h 23m
Length of Day
14h 15m
Full, 99% of the Moon is Illuminated
Apr 26
Full
May 2
Last Quarter
May 9
New
May 17
First Quarter
May 24
Full

Hourly Weather History & Observations

Time (CDT) Temp. Windchill Dew Point Humidity Pressure Visibility Wind Dir Wind Speed Gust Speed Precip Events Conditions
12:15 AM 39.2 °F 30.8 °F 30.2 °F 70% 29.93 in 10.0 mi South 15.0 mph - N/A   Overcast
12:34 AM 39.2 °F 31.2 °F 30.2 °F 70% 29.92 in 10.0 mi South 13.8 mph - N/A   Scattered Clouds
12:54 AM 39.2 °F 31.6 °F 30.2 °F 70% 29.91 in 10.0 mi South 12.7 mph - N/A   Clear
1:15 AM 39.2 °F 31.2 °F 30.2 °F 70% 29.90 in 10.0 mi South 13.8 mph - N/A   Clear
1:34 AM 39.2 °F 31.6 °F 30.2 °F 70% 29.90 in 10.0 mi South 12.7 mph - N/A   Clear
2:15 AM 39.2 °F 32.5 °F 30.2 °F 70% 29.88 in 10.0 mi South 10.4 mph - N/A   Scattered Clouds
2:34 AM 37.4 °F 30.3 °F 32.0 °F 81% 29.88 in 10.0 mi South 10.4 mph - N/A   Mostly Cloudy
2:55 AM 39.2 °F 32.5 °F 32.0 °F 75% 29.87 in 10.0 mi South 10.4 mph - N/A   Scattered Clouds
3:15 AM 37.4 °F 31.4 °F 32.0 °F 81% 29.88 in 10.0 mi South 8.1 mph - N/A   Scattered Clouds
3:34 AM 37.4 °F 32.8 °F 32.0 °F 81% 29.88 in 10.0 mi South 5.8 mph - N/A   Scattered Clouds
3:55 AM 35.6 °F 28.6 °F 32.0 °F 87% 29.89 in 10.0 mi SSW 9.2 mph - N/A   Scattered Clouds
4:15 AM 35.6 °F 29.9 °F 32.0 °F 87% 29.89 in 10.0 mi SSW 6.9 mph - N/A   Clear
4:34 AM 33.8 °F 28.6 °F 30.2 °F 87% 29.91 in 10.0 mi West 5.8 mph - N/A   Clear
4:55 AM 33.8 °F 29.6 °F 30.2 °F 87% 29.91 in 10.0 mi SW 4.6 mph - N/A   Clear
5:15 AM 33.8 °F 30.8 °F 30.2 °F 87% 29.91 in 10.0 mi SSW 3.5 mph - N/A   Clear
5:34 AM 33.8 °F 28.6 °F 30.2 °F 87% 29.91 in 10.0 mi South 5.8 mph - N/A   Clear
5:55 AM 33.8 °F 27.7 °F 32.0 °F 93% 29.91 in 10.0 mi SSE 6.9 mph - N/A   Clear
6:15 AM 33.8 °F 28.6 °F 32.0 °F 93% 29.91 in 10.0 mi SSE 5.8 mph - N/A   Clear
6:34 AM 33.8 °F 27.0 °F 32.0 °F 93% 29.91 in 10.0 mi SSE 8.1 mph - N/A   Clear
6:55 AM 33.8 °F 29.6 °F 32.0 °F 93% 29.93 in 10.0 mi SSE 4.6 mph - N/A   Clear
7:15 AM 33.8 °F 30.8 °F 30.2 °F 87% 29.94 in 10.0 mi South 3.5 mph - N/A   Clear
7:34 AM 33.8 °F 30.8 °F 33.8 °F 100% 29.95 in 10.0 mi South 3.5 mph - N/A   Clear
7:55 AM 35.6 °F 30.7 °F 33.8 °F 93% 29.95 in 10.0 mi South 5.8 mph - N/A   Clear
8:15 AM 37.4 °F 34.9 °F 33.8 °F 87% 29.96 in 10.0 mi South 3.5 mph - N/A   Clear
8:34 AM 39.2 °F 35.9 °F 35.6 °F 87% 29.97 in 10.0 mi SSW 4.6 mph - N/A   Clear
8:55 AM 41.0 °F 35.8 °F 35.6 °F 81% 29.97 in 10.0 mi SW 8.1 mph - N/A   Clear
9:14 AM 41.0 °F 35.8 °F 35.6 °F 81% 29.98 in 7.0 mi SW 8.1 mph - N/A   Clear
9:34 AM 42.8 °F 39.3 °F 37.4 °F 81% 29.98 in 10.0 mi SW 5.8 mph - N/A   Clear
9:55 AM 42.8 °F 38.6 °F 37.4 °F 81% 29.99 in 10.0 mi SW 6.9 mph - N/A   Clear
10:15 AM 44.6 °F 41.4 °F 39.2 °F 81% 30.00 in 10.0 mi SW 5.8 mph - N/A   Scattered Clouds
10:34 AM 46.4 °F 42.9 °F 39.2 °F 76% 30.00 in 10.0 mi SW 6.9 mph - N/A   Scattered Clouds
10:55 AM 46.4 °F 42.9 °F 39.2 °F 76% 30.01 in 10.0 mi SSW 6.9 mph - N/A   Clear
11:15 AM 48.2 °F - 41.0 °F 76% 30.01 in 10.0 mi SSW 6.9 mph - N/A   Clear
11:34 AM 50.0 °F - 42.8 °F 76% 30.02 in 10.0 mi SSW 6.9 mph - N/A   Clear
11:55 AM 51.8 °F - 42.8 °F 71% 30.02 in 10.0 mi SSW 8.1 mph - N/A   Clear
12:14 PM 51.8 °F - 42.8 °F 71% 30.03 in 10.0 mi SW 8.1 mph - N/A   Clear
12:34 PM 53.6 °F - 44.6 °F 72% 30.03 in 10.0 mi SW 8.1 mph - N/A   Clear
12:55 PM 55.4 °F - 42.8 °F 63% 30.03 in 10.0 mi SW 6.9 mph - N/A   Clear
1:14 PM 55.4 °F - 42.8 °F 63% 30.02 in 10.0 mi SW 6.9 mph - N/A   Clear
1:35 PM 57.2 °F - 42.8 °F 59% 30.02 in 10.0 mi SW 6.9 mph - N/A   Clear
1:55 PM 57.2 °F - 44.6 °F 63% 30.02 in 10.0 mi WSW 8.1 mph - N/A   Clear
2:14 PM 57.2 °F - 44.6 °F 63% 30.02 in 10.0 mi SW 8.1 mph - N/A   Clear
2:35 PM 59.0 °F - 44.6 °F 59% 30.02 in 10.0 mi West 10.4 mph - N/A   Clear
2:55 PM 60.8 °F - 44.6 °F 55% 30.03 in 10.0 mi WSW 9.2 mph - N/A   Clear
3:14 PM 60.8 °F - 44.6 °F 55% 30.03 in 10.0 mi WSW 9.2 mph - N/A   Clear
3:35 PM 62.6 °F - 46.4 °F 55% 30.03 in 10.0 mi WSW 9.2 mph - N/A   Clear
3:55 PM 62.6 °F - 46.4 °F 55% 30.03 in 10.0 mi WSW 9.2 mph - N/A   Clear
4:14 PM 62.6 °F - 46.4 °F 55% 30.03 in 10.0 mi WSW 8.1 mph - N/A   Clear
4:35 PM 62.6 °F - 46.4 °F 55% 30.04 in 10.0 mi WSW 8.1 mph - N/A   Clear
4:54 PM 62.6 °F - 44.6 °F 52% 30.04 in 10.0 mi West 9.2 mph - N/A   Clear
5:14 PM 62.6 °F - 42.8 °F 48% 30.04 in 10.0 mi West 8.1 mph - N/A   Clear
5:35 PM 62.6 °F - 42.8 °F 48% 30.04 in 10.0 mi West 8.1 mph - N/A   Clear
5:54 PM 62.6 °F - 44.6 °F 52% 30.04 in 10.0 mi West 8.1 mph - N/A   Clear
6:15 PM 62.6 °F - 44.6 °F 52% 30.05 in 10.0 mi West 8.1 mph - N/A   Clear
6:35 PM 62.6 °F - 46.4 °F 55% 30.05 in 10.0 mi West 6.9 mph - N/A   Clear
6:54 PM 60.8 °F - 46.4 °F 59% 30.05 in 10.0 mi WSW 6.9 mph - N/A   Clear
7:15 PM 60.8 °F - 48.2 °F 63% 30.06 in 10.0 mi WSW 4.6 mph - N/A   Clear
7:35 PM 59.0 °F - 48.2 °F 67% 30.06 in 10.0 mi Calm Calm - N/A   Clear
7:54 PM 57.2 °F - 51.8 °F 82% 30.06 in 10.0 mi WSW 3.5 mph - N/A   Clear
8:15 PM 55.4 °F - 50.0 °F 82% 30.06 in 10.0 mi SSW 3.5 mph - N/A   Clear
8:35 PM 55.4 °F - 46.4 °F 72% 30.05 in 10.0 mi South 4.6 mph - N/A   Clear
8:54 PM 51.8 °F - 46.4 °F 82% 30.06 in 10.0 mi South 5.8 mph - N/A   Clear
9:15 PM 51.8 °F - 46.4 °F 82% 30.06 in 10.0 mi South 6.9 mph - N/A   Clear
9:35 PM 50.0 °F - 44.6 °F 82% 30.06 in 10.0 mi South 6.9 mph - N/A   Clear
9:54 PM 50.0 °F - 44.6 °F 82% 30.06 in 10.0 mi South 9.2 mph - N/A   Clear
10:15 PM 48.2 °F - 44.6 °F 87% 30.06 in 10.0 mi South 8.1 mph - N/A   Clear
10:35 PM 48.2 °F - 44.6 °F 87% 30.06 in 10.0 mi South 6.9 mph - N/A   Clear
10:54 PM 48.2 °F - 44.6 °F 87% 30.06 in 10.0 mi South 8.1 mph - N/A   Clear
11:15 PM 46.4 °F 41.9 °F 44.6 °F 93% 30.05 in 10.0 mi SSE 9.2 mph - N/A   Clear
11:35 PM 48.2 °F - 44.6 °F 87% 30.04 in 10.0 mi South 9.2 mph - N/A   Clear
11:54 PM 48.2 °F - 42.8 °F 82% 30.04 in 10.0 mi South 10.4 mph - N/A   Clear